Hlavní strana
METAR-TAF:

METAR-TAF

Letiště :

Mikkeli, Finsko

zeměpisná šířka: 61-44N, zeměpisná délka: 027-18E, výška: 138 m

Aktuální stav počasí

Zpráva byla vytvořena před 16 minutami, v 01:20 UTC
Východojihovýchodní vítr 4 kt
Teplota 8°C
Vlhkost vzduchu 100%
Tlak 964 hPa
Viditelnost 10 km a více
Zataženo ve výšce 300 ft
slabý déšť

METAR: EFMI 220120Z AUTO 11004KT 9999 -RA OVC003 08/08 Q0964 RERA

Čas: 04:36 (01:36 UTC)


TAF: chybějící

Stav a předpovědi počasí z více než 4 000 letišť (zprávy METAR a TAF).

Červené a žluté tečky na mapě představují dostupné meteorologické stanice.

Když kurzor umístíte na tečku, zobrazí se název stanice.

Pak kliknutím zobrazíte stav a předpověď počasí.

Chcete-li změnit mapu, kliknutím na zelené tlačítko se znaménkem +mapu přiblížíte, kliknutím na zelené tlačítko se znaménkem – mapu oddálíte a kliknutím na zelené šipky přejdete na sousední mapy.


METAR-TAF: